Skip Page Navigation
NASA JPL Caltech
NASA Logo - Jet Propulsion Laboratory + View the NASA Portal
+ Center for Near-Earth Object Studies
JPL Home Earth Solar System Stars & Galaxies Technology
JPL Solar System Dynamics
BODIES ORBITS EPHEMERIDES TOOLS PHYSICAL DATA DISCOVERY FAQ SITE MAP
JPL Small-Body Database Browser
Search: [ help ]  
26521 (2000 CS76)
Classification: Main-belt Asteroid          SPK-ID: 2026521
Ephemeris | Orbit Diagram | Orbital Elements | Mission Design | Physical Parameters | Discovery Circumstances | Close-Approach Data ]

[ show orbit diagram ]
Orbital Elements at Epoch 2459200.5 (2020-Dec-17.0) TDB
Reference: JPL 36 (heliocentric ecliptic J2000)
 Element Value Uncertainty (1-sigma)   Units 
e .2390770441602011 3.4255e-08  
a 3.101347292116361 1.8899e-08 au
q 2.359886348602938 1.048e-07 au
i 7.217046103942294 4.0261e-06 deg
node 136.8252981009955 3.0826e-05 deg
peri 143.054527144257 3.1967e-05 deg
M 201.1277334236901 1.0953e-05 deg
tp 2460080.878889654953
(2023-May-16.37888966)
6.5506e-05 TDB
period 1994.913316878698
5.46
1.8235e-05
4.992e-08
d
yr
n .1804589687953293 1.6495e-09 deg/d
Q 3.842808235629785 2.3417e-08 au
  Orbit Determination Parameters
   # obs. used (total)      1842  
   data-arc span      15301 days (41.89 yr)  
   first obs. used      1979-04-30  
   last obs. used      2021-03-21  
   planetary ephem.      DE441  
   SB-pert. ephem.      SB441-N16  
   condition code      0  
   norm. resid. RMS      .44561  
   source      ORB  
   producer      Otto Matic  
   solution date      2021-May-04 03:54:14  

Additional Information
 Earth MOID = 1.34642 au 
 Jupiter MOID = 1.36928 au 
 T_jup = 3.165 
[ show covariance matrix ]

Ephemeris | Orbit Diagram | Orbital Elements | Mission Design | Physical Parameters | Discovery Circumstances | Close-Approach Data ]

Physical Parameter Table
Parameter Symbol Value Units Sigma Reference Notes
absolute magnitude H 13.40   n/a MPCxxxxx  
diameter diameter 10.132 km 0.227 urn:nasa:pds:neowise_diameters_albedos::2.0[mainbelt] (http://adsabs.harvard.edu/abs/2011ApJ...741...68M)  
rotation period rot_per 9.03254 h n/a LCDB (Rev. 2020-October); Warner et al., 2009 Result based on less than full coverage, so that the period may be wrong by 30 percent or so.
Published Reference List:
[Pal, A.; Szakats, R.; Kiss, C.; Bodi, A.; et al. (2019) Ap. J. Supl. Ser. 247, id.26.]
geometric albedo albedo 0.099   0.015 urn:nasa:pds:neowise_diameters_albedos::2.0[mainbelt] (http://adsabs.harvard.edu/abs/2011ApJ...741...68M)  

26521 (2000 CS76)          Discovered 2000-Feb-10 by Korlevic, K. at Visnjan
Reference: 20010705/Numbers.arcLast Updated: 2004-04-19

[ show close-approach data ]
Alternate Designations
 2000 CS76 = 1979 HN6 
Ephemeris | Orbit Diagram | Orbital Elements | Mission Design | Physical Parameters | Discovery Circumstances | Close-Approach Data ]
ABOUT SSD CREDITS/AWARDS PRIVACY/COPYRIGHT GLOSSARY LINKS
FirstGov 2021-May-08 14:58 UT
(server date/time)  
NASA Home Page
Site Manager:   Ryan S. Park
Webmaster  Alan B. Chamberlin